Sault Ste Marie, MI

6:59 PM EDT on June 25, 2017 (GMT -0400)
Sault Ste Marie Municipal / Sanderson Field

Weather History for KANJ - July, 2014

Change the Weather History Date:

Thursday, July 3, 2014

  Actual Average Record
Temperature  
Mean Temperature 57 °F 64 °F  
Max Temperature 69 °F 75 °F 98 °F (1921)
Min Temperature 44 °F 53 °F 38 °F (1945)
Degree Days  
Heating Degree Days 8 3  
Month to date heating degree days 17 9  
Since 1 June heating degree days 126 189  
Since 1 July heating degree days 17 9  
Cooling Degree Days 0 2  
Month to date cooling degree days 4 6  
Year to date cooling degree days 43 41  
Since 1 June cooling degree days 41 36  
Growing Degree Days 7 (Base 50)    
Moisture  
Dew Point 46 °F    
Average Humidity 67    
Maximum Humidity 86    
Minimum Humidity 48    
Precipitation  
Precipitation 0.00 in 0.09 in 0.95 in (1900)
Month to date precipitation 0.39 0.25  
Year to date precipitation 15.35 13.39  
Sea Level Pressure  
Sea Level Pressure 30.06 in    
Wind  
Wind Speed 6 mph (West)    
Max Wind Speed 15 mph    
Max Gust Speed 18 mph    
Visibility 10 miles    
Events      
T = Trace of Precipitation, MM = Missing Value Source: NWS Daily Summary

Daily Weather History Graph

Daily Weather History Graph

Search for Another Location

Airport or City:

Trip Planner

Search our weather history database for the weather conditions in past years. The results will help you decide how hot, cold, wet, or windy it might be!

Date:

Astronomy

Jul. 03, 2014 Rise Set
Actual Time 5:49 AM EDT 9:33 PM EDT
Civil Twilight 5:11 AM EDT 10:11 PM EDT
Nautical Twilight 4:18 AM EDT 11:04 PM EDT
Astronomical Twilight 3:05 AM EDT 12:16 AM EDT
Moon 12:10 PM EDT (7/3) 12:05 AM EDT (7/3)
Length of Visible Light 17h 00m
Length of Day
15h 43m
Waxing Crescent, 33% of the Moon is Illuminated
Jul 3
Waxing Crescent
Jul 5
First Quarter
Jul 12
Full
Jul 18
Last Quarter
Jul 26
New

Hourly Weather History & Observations

Time (EDT) Temp. Windchill Dew Point Humidity Pressure Visibility Wind Dir Wind Speed Gust Speed Precip Events Conditions
12:55 AM 48.0 °F - 37.9 °F 68% 29.97 in 10.0 mi NW 5.8 mph - N/A   Clear
1:55 AM 46.9 °F - 37.9 °F 71% 29.98 in 10.0 mi WNW 5.8 mph - N/A   Clear
2:55 AM 46.0 °F 44.8 °F 39.0 °F 76% 29.98 in 10.0 mi WNW 3.5 mph - N/A   Clear
3:55 AM 45.0 °F 43.5 °F 39.9 °F 82% 29.98 in 10.0 mi West 3.5 mph - N/A   Clear
4:55 AM 45.0 °F 42.6 °F 39.9 °F 82% 29.99 in 10.0 mi West 4.6 mph - N/A   Clear
5:55 AM 46.0 °F 43.9 °F 42.1 °F 86% 29.99 in 10.0 mi West 4.6 mph - N/A   Clear
6:55 AM 48.0 °F - 43.0 °F 83% 30.01 in 10.0 mi West 3.5 mph - N/A   Scattered Clouds
7:55 AM 50.0 °F - 44.1 °F 80% 30.02 in 10.0 mi WNW 4.6 mph - N/A   Clear
8:55 AM 57.0 °F - 46.9 °F 69% 30.03 in 10.0 mi Calm Calm - N/A   Scattered Clouds
9:55 AM 59.0 °F - 48.0 °F 67% 30.05 in 10.0 mi ENE 3.5 mph - N/A   Clear
10:55 AM 62.1 °F - 51.1 °F 67% 30.05 in 10.0 mi SE 3.5 mph - N/A   Partly Cloudy
11:55 AM 66.9 °F - 54.0 °F 63% 30.05 in 10.0 mi South 6.9 mph - N/A   Partly Cloudy
12:27 PM 66.2 °F - 53.6 °F 64% 30.06 in 10.0 mi Variable 4.6 mph - N/A   Mostly Cloudy
12:55 PM 64.0 °F - 53.1 °F 67% 30.06 in 10.0 mi WNW 3.5 mph - N/A   Overcast
1:13 PM 64.0 °F - 52.0 °F 65% 30.06 in 10.0 mi Calm Calm - N/A   Overcast
1:55 PM 64.9 °F - 53.1 °F 65% 30.05 in 10.0 mi South 3.5 mph - N/A   Partly Cloudy
2:55 PM 69.1 °F - 52.0 °F 54% 30.06 in 10.0 mi West 8.1 mph - N/A   Partly Cloudy
3:55 PM 68.0 °F - 50.0 °F 52% 30.07 in 10.0 mi West 9.2 mph - N/A   Clear
4:55 PM 64.9 °F - 48.9 °F 56% 30.09 in 10.0 mi WSW 11.5 mph - N/A   Clear
5:55 PM 66.0 °F - 48.9 °F 54% 30.09 in 10.0 mi West 11.5 mph - N/A   Clear
6:55 PM 64.9 °F - 45.0 °F 48% 30.09 in 10.0 mi WNW 8.1 mph - N/A   Clear
7:55 PM 61.0 °F - 43.0 °F 52% 30.12 in 10.0 mi WNW 9.2 mph - N/A   Clear
8:55 PM 57.0 °F - 41.0 °F 55% 30.12 in 10.0 mi WNW 9.2 mph - N/A   Clear
9:55 PM 53.1 °F - 41.0 °F 64% 30.13 in 10.0 mi WNW 3.5 mph - N/A   Clear
10:55 PM 48.9 °F - 39.9 °F 71% 30.15 in 10.0 mi West 4.6 mph - N/A   Clear
11:55 PM 51.1 °F - 39.9 °F 66% 30.16 in 10.0 mi WNW 6.9 mph - N/A   Scattered Clouds